Home   Weather   Biarritz   Past weeks

Flag for France Past Weather in Biarritz, Aquitaine, France — Yesterday and Last 2 Weeks

Now
70 °F

Partly cloudy.


Feels Like: 70 °F
Forecast: 60 / 70 °F
Wind: 10 mph from Northwest

Location: Biarritz Airport

Current Time: Sep 25, 2016 at 5:44:08 AM

Latest Report: Sep 25, 2016 at 5:00 AM


Visibility: N/A

Pressure: 30.09 "Hg

Humidity: 73%

Dew Point: 61 °F

Location of BiarritzLocation

Past Weather in Biarritz — Graph

°F

Biarritz Temperature Yesterday

Maximum temperature yesterday: 84 °F (at 2:00 PM)
Minimum temperature yesterday: 55 °F (at 5:30 AM)
Average temperature yesterday: 70 °F

High & Low Weather Summary for the Past Weeks

 TemperatureHumidityPressure
High99 °F (Sep 12, 4:00 PM)100% (Sep 12, 5:00 AM)30.30 "Hg (Sep 12, 5:00 AM)
Low54 °F (Sep 15, 1:30 AM)21% (Sep 12, 6:00 PM)29.68 "Hg (Sep 13, 3:30 PM)
Average67 °F75%30.05 "Hg
* Reported Sep 10 4:00 AM — Sep 25 4:00 AM, Biarritz, Weather by CustomWeather, © 2016

Note: Actual official high and low records may vary slightly from our data, if they occured in-between our weather recording intervals... More about our weather records

Advertising

Biarritz Weather History for the Previous 24 Hours

Scroll right to see more
 ConditionsComfort  
Time TempWeatherWind HumidityBarometerVisibility
4:00 AM
Sun, Sep 25
70 °FMostly cloudy.18 mph83%30.09 "HgN/A
3:30 AM68 °FLow clouds.18 mph94%30.09 "HgN/A
3:00 AM68 °FPassing clouds.22 mph88%30.07 "HgN/A
2:30 AM73 °FPassing clouds.5 mph44%30.01 "HgN/A
2:00 AM73 °FPassing clouds.5 mph47%30.01 "HgN/A
1:30 AM75 °FPassing clouds.8 mph41%30.01 "HgN/A
1:00 AM75 °FPassing clouds.5 mph44%29.98 "HgN/A
12:30 AM72 °FPassing clouds.3 mph50%29.98 "HgN/A
12:00 AM70 °FClear.5 mph57%29.98 "Hg10 mi
11:30 PM
Sat, Sep 24
72 °FClear.5 mph50%29.98 "Hg10 mi
11:00 PM73 °FPassing clouds.5 mph50%29.98 "HgN/A
10:30 PM72 °FClear.6 mph57%29.98 "Hg10 mi
10:00 PM72 °FClear.6 mph57%29.98 "Hg10 mi
9:30 PM73 °FClear.6 mph53%29.98 "Hg10 mi
9:00 PM73 °FClear.6 mph57%29.98 "Hg10 mi
8:30 PM73 °FClear.5 mph61%29.98 "Hg10 mi
8:00 PM75 °FClear.6 mph57%29.98 "Hg10 mi
7:30 PM77 °FSunny.5 mph51%29.98 "Hg10 mi
7:00 PM79 °FSunny.5 mph51%30.01 "Hg10 mi
6:30 PM81 °FSunny.5 mph48%30.01 "Hg10 mi
6:00 PM84 °FPassing clouds.5 mph40%30.01 "HgN/A
5:30 PM84 °FPassing clouds.3 mph40%30.01 "HgN/A
5:00 PM84 °FPassing clouds.5 mph37%30.01 "HgN/A
4:30 PM84 °FSunny.5 mph40%30.04 "Hg10 mi
4:00 PM84 °FPassing clouds.6 mph37%30.04 "HgN/A
3:30 PM84 °FPassing clouds.7 mph35%30.04 "HgN/A
3:00 PM84 °FPassing clouds.6 mph37%30.07 "HgN/A
2:30 PM84 °FSunny.6 mph35%30.07 "Hg10 mi
2:00 PM84 °FPassing clouds.8 mph37%30.07 "HgN/A
1:30 PM82 °FPassing clouds.10 mph37%30.09 "HgN/A
1:00 PM81 °FPassing clouds.10 mph39%30.09 "HgN/A
12:30 PM81 °FPassing clouds.7 mph39%30.12 "HgN/A
12:00 PM79 °FSunny.6 mph42%30.12 "Hg10 mi
11:30 AM77 °FPassing clouds.8 mph44%30.12 "HgN/A
11:00 AM75 °FPassing clouds.5 mph47%30.12 "HgN/A
10:30 AM73 °FPassing clouds.6 mph53%30.12 "HgN/A
10:00 AM70 °FPassing clouds.5 mph60%30.12 "HgN/A
9:30 AM68 °FSunny.7 mph64%30.12 "Hg10 mi
9:00 AM63 °FPassing clouds.6 mph77%30.12 "HgN/A
8:30 AM57 °FSunny.3 mph94%30.12 "Hg10 mi
8:00 AM55 °FPassing clouds.5 mph94%30.12 "HgN/A
7:30 AM55 °FClear.5 mph94%30.12 "Hg10 mi
7:00 AM55 °FPassing clouds.5 mph100%30.12 "HgN/A
6:30 AM55 °FPassing clouds.3 mph94%30.12 "HgN/A
6:00 AM55 °FClear.6 mph100%30.12 "Hg10 mi
5:30 AM55 °FPassing clouds.3 mph94%30.12 "HgN/A
5:00 AM57 °FClear.2 mph94%30.12 "Hg10 mi
Weather by CustomWeather, © 2016

See weather overviewHow to use our weather pages